^^

..:: Storico WU ::..




Lo storico viene creato da WUnderground con i dati che la stazione Meteomincio invia al loro server. L' aggiornamento viene fatto ogni 5 minuti circa, tuttavia possono esserci intervalli pił ampi a causa di errori, interruzioni di servizio o problemi nell' invio tramite FTP.


Storico stazione MeteoMincio
Giorno Sommario per Luglio 05, 2022 Unità:  Inglese    Metrico   Entrambi
Giorno Settimana Mese Anno
  Max: Min: Media:
Temperatura: 91.4 °F 68 °F 79.3 °F
Dew Point: 73.4 °F 64.4 °F 68.2 °F
Umidità: 92% 48% 71%
Velocità vento: 11.8mph 0mph 5.4mph
Raffica: 14.3mph - -
Direzione- - WSW
Pressione: 29.9 in 29.9 in -
Precipitazioni: 0.01 in    
 
 
Tabulato Dati per Luglio 05, 2022
Ora Temperatura Dew Point Pressione Direzione Velocità vento Raffica Umidità Intensità pioggia (oraria) Info solare Situazione
00:04 68 °F 66.2 °F 29.9 in SW 6.2 mph 6.8 mph 90% 0 in 0.00 W/m2 unknown
00:09 68 °F 66.2 °F 29.9 in WSW 3.7 mph 6.8 mph 89% 0 in 0.00 W/m2 unknown
00:14 68 °F 64.4 °F 29.9 in WSW 3.1 mph 5 mph 89% 0 in 0.00 W/m2 unknown
00:19 68 °F 64.4 °F 29.9 in WSW 3.7 mph 5 mph 90% 0 in 0.00 W/m2 unknown
00:24 68 °F 64.4 °F 29.9 in WSW 3.1 mph 5 mph 90% 0 in 0.00 W/m2 unknown
00:29 68 °F 64.4 °F 29.9 in WSW 4.3 mph 5 mph 90% 0 in 0.00 W/m2 unknown
00:34 68 °F 64.4 °F 29.9 in WSW 5.6 mph 6.8 mph 91% 0 in 0.00 W/m2 unknown
00:39 68 °F 64.4 °F 29.9 in West 4.3 mph 6.8 mph 91% 0 in 0.00 W/m2 unknown
00:44 68 °F 64.4 °F 29.9 in WSW 4.3 mph 5 mph 91% 0 in 0.00 W/m2 unknown
00:49 68 °F 64.4 °F 29.9 in West 4.3 mph 6.2 mph 90% 0 in 0.00 W/m2 unknown
00:54 68 °F 64.4 °F 29.9 in West 3.7 mph 6.2 mph 90% 0 in 0.00 W/m2 unknown
00:59 68 °F 64.4 °F 29.9 in WNW 5 mph 6.2 mph 90% 0 in 0.00 W/m2 unknown
01:04 68 °F 64.4 °F 29.9 in WNW 5 mph 6.8 mph 90% 0 in 0.00 W/m2 unknown
01:09 68 °F 64.4 °F 29.9 in WNW 5.6 mph 8.7 mph 89% 0 in 0.00 W/m2 unknown
01:14 68 °F 64.4 °F 29.9 in WNW 6.2 mph 9.3 mph 89% 0 in 0.00 W/m2 unknown
01:19 68 °F 64.4 °F 29.9 in WNW 6.2 mph 8.7 mph 89% 0 in 0.00 W/m2 unknown
01:24 68 °F 64.4 °F 29.9 in WNW 5.6 mph 8.1 mph 89% 0 in 0.00 W/m2 unknown
01:29 68 °F 64.4 °F 29.9 in WNW 6.2 mph 9.3 mph 89% 0 in 0.00 W/m2 unknown
01:34 68 °F 64.4 °F 29.9 in WNW 5.6 mph 8.7 mph 89% 0 in 0.00 W/m2 unknown
01:39 68 °F 64.4 °F 29.9 in WNW 7.5 mph 9.3 mph 89% 0 in 0.00 W/m2 unknown
01:44 68 °F 64.4 °F 29.9 in WNW 6.2 mph 11.8 mph 89% 0 in 0.00 W/m2 unknown
01:49 68 °F 64.4 °F 29.9 in WNW 6.8 mph 11.8 mph 89% 0 in 0.00 W/m2 unknown
01:54 68 °F 64.4 °F 29.9 in WNW 6.2 mph 9.9 mph 89% 0 in 0.00 W/m2 unknown
01:59 68 °F 64.4 °F 29.9 in WNW 5.6 mph 8.1 mph 89% 0 in 0.00 W/m2 unknown
02:04 68 °F 64.4 °F 29.9 in WNW 5 mph 8.1 mph 89% 0 in 0.00 W/m2 unknown
02:09 68 °F 64.4 °F 29.9 in WNW 5 mph 6.8 mph 89% 0 in 0.00 W/m2 unknown
02:14 68 °F 64.4 °F 29.9 in WNW 4.3 mph 6.8 mph 89% 0 in 0.00 W/m2 unknown
02:19 68 °F 64.4 °F 29.9 in WNW 7.5 mph 10.6 mph 89% 0 in 0.00 W/m2 unknown
02:24 68 °F 64.4 °F 29.9 in WNW 7.5 mph 10.6 mph 88% 0 in 0.00 W/m2 unknown
02:29 68 °F 64.4 °F 29.9 in NW 6.2 mph 11.8 mph 88% 0 in 0.00 W/m2 unknown
02:34 68 °F 64.4 °F 29.9 in NW 7.5 mph 11.8 mph 87% 0 in 0.00 W/m2 unknown
02:39 68 °F 64.4 °F 29.9 in WNW 8.1 mph 11.8 mph 87% 0 in 0.00 W/m2 unknown
02:44 68 °F 64.4 °F 29.9 in WNW 9.3 mph 11.8 mph 86% 0 in 0.00 W/m2 unknown
02:49 69.8 °F 64.4 °F 29.9 in WNW 9.3 mph 11.8 mph 86% 0 in 0.00 W/m2 unknown
02:54 69.8 °F 64.4 °F 29.9 in WNW 7.5 mph 10.6 mph 85% 0 in 0.00 W/m2 unknown
02:59 69.8 °F 64.4 °F 29.9 in WNW 6.2 mph 9.9 mph 84% 0 in 0.00 W/m2 unknown
03:04 69.8 °F 64.4 °F 29.9 in WNW 7.5 mph 11.8 mph 83% 0 in 0.00 W/m2 unknown
03:09 69.8 °F 64.4 °F 29.9 in WNW 5 mph 11.8 mph 84% 0 in 0.00 W/m2 unknown
03:14 69.8 °F 64.4 °F 29.9 in WNW 6.2 mph 8.7 mph 84% 0 in 0.00 W/m2 unknown
03:19 69.8 °F 64.4 °F 29.9 in WNW 6.2 mph 8.1 mph 84% 0 in 0.00 W/m2 unknown
03:24 69.8 °F 64.4 °F 29.9 in WNW 6.2 mph 11.2 mph 84% 0 in 0.00 W/m2 unknown
03:29 69.8 °F 64.4 °F 29.9 in West 8.1 mph 11.8 mph 84% 0 in 0.00 W/m2 unknown
03:34 69.8 °F 64.4 °F 29.9 in West 7.5 mph 11.8 mph 84% 0 in 0.00 W/m2 unknown
03:39 69.8 °F 64.4 °F 29.9 in WNW 8.7 mph 13 mph 85% 0 in 0.00 W/m2 unknown
03:44 69.8 °F 64.4 °F 29.9 in West 9.9 mph 13 mph 85% 0 in 0.00 W/m2 unknown
03:49 69.8 °F 64.4 °F 29.9 in WNW 11.8 mph 13.7 mph 85% 0 in 0.00 W/m2 unknown
03:54 69.8 °F 64.4 °F 29.9 in WNW 8.1 mph 14.3 mph 85% 0 in 0.00 W/m2 unknown
03:59 69.8 °F 64.4 °F 29.9 in WNW 6.8 mph 11.8 mph 85% 0 in 0.00 W/m2 unknown
04:04 69.8 °F 64.4 °F 29.9 in WNW 7.5 mph 10.6 mph 85% 0 in 0.00 W/m2 unknown
04:09 69.8 °F 64.4 °F 29.9 in WNW 8.1 mph 11.8 mph 84% 0 in 0.00 W/m2 unknown
04:14 69.8 °F 64.4 °F 29.9 in WNW 8.1 mph 11.8 mph 84% 0 in 0.00 W/m2 unknown
04:19 69.8 °F 64.4 °F 29.9 in West 8.1 mph 11.8 mph 84% 0 in 0.00 W/m2 unknown
04:24 69.8 °F 64.4 °F 29.9 in WNW 8.1 mph 11.8 mph 84% 0 in 0.00 W/m2 unknown
04:29 69.8 °F 64.4 °F 29.9 in WNW 8.1 mph 11.8 mph 84% 0 in 0.00 W/m2 unknown
04:34 69.8 °F 64.4 °F 29.9 in WNW 5 mph 8.1 mph 85% 0 in 0.00 W/m2 unknown
04:39 69.8 °F 64.4 °F 29.9 in WNW 5 mph 6.8 mph 85% 0 in 0.00 W/m2 unknown
04:44 69.8 °F 64.4 °F 29.9 in WNW 4.3 mph 6.2 mph 86% 0 in 0.00 W/m2 unknown
04:49 69.8 °F 64.4 °F 29.9 in NW 3.7 mph 6.2 mph 86% 0 in 0.00 W/m2 unknown
04:54 69.8 °F 64.4 °F 29.9 in NW 3.1 mph 5 mph 85% 0 in 0.00 W/m2 unknown
04:59 69.8 °F 64.4 °F 29.9 in NW 3.1 mph 5 mph 85% 0 in 0.00 W/m2 unknown
05:04 69.8 °F 64.4 °F 29.9 in NW 1.9 mph 5 mph 85% 0 in 0.00 W/m2 unknown
05:09 69.8 °F 64.4 °F 29.9 in WNW 3.1 mph 5 mph 85% 0 in 0.00 W/m2 unknown
05:14 69.8 °F 64.4 °F 29.9 in WNW 3.1 mph 5 mph 85% 0 in 0.00 W/m2 unknown
05:19 69.8 °F 64.4 °F 29.9 in WNW 1.2 mph 2.5 mph 86% 0 in 0.00 W/m2 unknown
05:24 69.8 °F 64.4 °F 29.9 in West 1.9 mph 3.1 mph 86% 0 in 0.00 W/m2 unknown
05:29 68 °F 64.4 °F 29.9 in WSW 2.5 mph 3.7 mph 87% 0 in 0.00 W/m2 unknown
05:34 68 °F 64.4 °F 29.9 in West 1.9 mph 3.1 mph 87% 0 in 0.00 W/m2 unknown
05:39 68 °F 64.4 °F 29.9 in Calm   1.9 mph 87% 0 in 0.00 W/m2 unknown
05:44 68 °F 64.4 °F 29.9 in West 1.9 mph 2.5 mph 88% 0 in 0.00 W/m2 unknown
05:49 68 °F 64.4 °F 29.9 in West 1.2 mph 1.9 mph 88% 0 in 5.00 W/m2 unknown
05:54 68 °F 64.4 °F 29.9 in West 0.6 mph 1.2 mph 88% 0 in 7.00 W/m2 unknown
05:59 68 °F 64.4 °F 29.9 in WSW 3.7 mph 5 mph 88% 0 in 11.00 W/m2 unknown
06:04 68 °F 64.4 °F 29.9 in SW 4.3 mph 5 mph 88% 0 in 12.00 W/m2 unknown
06:09 68 °F 64.4 °F 29.9 in SW 5 mph 6.8 mph 89% 0 in 18.00 W/m2 unknown
06:14 68 °F 64.4 °F 29.9 in SW 4.3 mph 6.8 mph 89% 0 in 19.00 W/m2 unknown
06:19 68 °F 64.4 °F 29.9 in WSW 5 mph 6.8 mph 89% 0 in 19.00 W/m2 unknown
06:24 68 °F 64.4 °F 29.9 in SW 5 mph 6.8 mph 89% 0 in 18.00 W/m2 unknown
06:29 68 °F 64.4 °F 29.9 in SW 4.3 mph 6.8 mph 89% 0 in 16.00 W/m2 unknown
06:34 68 °F 64.4 °F 29.9 in WSW 6.2 mph 8.7 mph 89% 0 in 16.00 W/m2 unknown
06:39 68 °F 64.4 °F 29.9 in WSW 6.2 mph 9.3 mph 90% 0 in 16.00 W/m2 unknown
06:44 68 °F 64.4 °F 29.9 in WSW 5.6 mph 9.3 mph 91% 0 in 18.00 W/m2 unknown
06:49 68 °F 64.4 °F 29.9 in WSW 8.1 mph 11.8 mph 91% 0 in 26.00 W/m2 unknown
06:54 68 °F 64.4 °F 29.9 in WSW 7.5 mph 11.8 mph 91% 0 in 40.00 W/m2 unknown
06:59 68 °F 64.4 °F 29.9 in WSW 6.8 mph 11.8 mph 91% 0 in 72.00 W/m2 unknown
07:04 68 °F 64.4 °F 29.9 in WSW 6.8 mph 11.8 mph 92% 0 in 72.00 W/m2 unknown
07:09 68 °F 66.2 °F 29.9 in WSW 6.2 mph 8.7 mph 92% 0 in 91.00 W/m2 unknown
07:14 68 °F 66.2 °F 29.9 in West 7.5 mph 10.6 mph 91% 0 in 116.00 W/m2 unknown
07:19 68 °F 66.2 °F 29.9 in WSW 6.2 mph 9.9 mph 91% 0 in 132.00 W/m2 unknown
07:24 69.8 °F 66.2 °F 29.9 in West 5 mph 8.1 mph 91% 0 in 146.00 W/m2 unknown
07:29 69.8 °F 66.2 °F 29.9 in WSW 6.2 mph 9.3 mph 90% 0 in 163.00 W/m2 unknown
07:34 69.8 °F 66.2 °F 29.9 in WSW 6.2 mph 8.7 mph 90% 0 in 178.00 W/m2 unknown
07:39 69.8 °F 66.2 °F 29.9 in WSW 6.2 mph 10.6 mph 89% 0 in 190.00 W/m2 unknown
07:44 71.6 °F 68 °F 29.9 in West 6.2 mph 9.9 mph 89% 0 in 204.00 W/m2 unknown
07:49 71.6 °F 68 °F 29.9 in West 6.8 mph 10.6 mph 89% 0 in 218.00 W/m2 unknown
07:54 71.6 °F 68 °F 29.9 in West 7.5 mph 11.8 mph 88% 0 in 229.00 W/m2 unknown
07:59 71.6 °F 68 °F 29.9 in West 6.8 mph 11.8 mph 87% 0 in 243.00 W/m2 unknown
08:04 73.4 °F 68 °F 29.9 in West 6.8 mph 10.6 mph 86% 0 in 257.00 W/m2 unknown
08:09 73.4 °F 68 °F 29.9 in West 7.5 mph 11.8 mph 85% 0 in 271.00 W/m2 unknown
08:14 73.4 °F 68 °F 29.9 in West 7.5 mph 11.8 mph 84% 0 in 283.00 W/m2 unknown
08:19 73.4 °F 68 °F 29.9 in WNW 6.8 mph 11.8 mph 84% 0 in 297.00 W/m2 unknown
08:24 73.4 °F 68 °F 29.9 in West 7.5 mph 11.8 mph 83% 0 in 311.00 W/m2 unknown
08:29 75.2 °F 68 °F 29.9 in WNW 6.8 mph 11.8 mph 82% 0 in 323.00 W/m2 unknown
08:34 75.2 °F 68 °F 29.9 in WNW 7.5 mph 10.6 mph 81% 0 in 338.00 W/m2 unknown
08:39 75.2 °F 68 °F 29.9 in NW 7.5 mph 11.2 mph 80% 0 in 352.00 W/m2 unknown
08:44 75.2 °F 68 °F 29.9 in NW 8.7 mph 11.8 mph 79% 0 in 364.00 W/m2 unknown
08:49 75.2 °F 68 °F 29.9 in WNW 8.7 mph 11.8 mph 78% 0 in 380.00 W/m2 unknown
08:54 75.2 °F 68 °F 29.9 in WNW 6.8 mph 11.8 mph 78% 0 in 394.00 W/m2 unknown
08:59 75.2 °F 68 °F 29.9 in WNW 8.7 mph 11.8 mph 77% 0 in 413.00 W/m2 unknown
09:04 77 °F 68 °F 29.9 in WNW 7.5 mph 11.8 mph 77% 0 in 441.00 W/m2 unknown
09:09 77 °F 68 °F 29.9 in WNW 7.5 mph 10.6 mph 77% 0 in 492.00 W/m2 unknown
09:14 77 °F 68 °F 29.9 in NW 6.8 mph 9.9 mph 75% 0 in 517.00 W/m2 unknown
09:19 77 °F 68 °F 29.9 in WNW 6.2 mph 8.1 mph 74% 0.01 in 517.00 W/m2 unknown
09:24 77 °F 68 °F 29.9 in NW 7.5 mph 10.6 mph 74% 0.01 in 492.00 W/m2 unknown
09:29 77 °F 68 °F 29.9 in NW 6.8 mph 10.6 mph 73% 0.01 in 508.00 W/m2 unknown
09:34 78.8 °F 68 °F 29.9 in NW 7.5 mph 10.6 mph 72% 0.01 in 510.00 W/m2 unknown
09:39 78.8 °F 68 °F 29.9 in NW 6.8 mph 9.9 mph 71% 0.01 in 519.00 W/m2 unknown
09:44 78.8 °F 68 °F 29.9 in WNW 7.5 mph 9.3 mph 71% 0.01 in 531.00 W/m2 unknown
09:49 78.8 °F 68 °F 29.9 in WNW 7.5 mph 9.3 mph 70% 0.01 in 541.00 W/m2 unknown
09:54 78.8 °F 69.8 °F 29.9 in WNW 8.1 mph 9.3 mph 70% 0.01 in 555.00 W/m2 unknown
09:59 78.8 °F 68 °F 29.9 in WNW 8.7 mph 11.8 mph 70% 0.01 in 564.00 W/m2 unknown
10:04 78.8 °F 69.8 °F 29.9 in WNW 7.5 mph 11.8 mph 71% 0.01 in 577.00 W/m2 unknown
10:09 78.8 °F 68 °F 29.9 in WNW 9.9 mph 11.8 mph 69% 0.01 in 589.00 W/m2 unknown
10:14 80.6 °F 69.8 °F 29.9 in West 8.1 mph 11.8 mph 70% 0.01 in 612.00 W/m2 unknown
10:19 80.6 °F 69.8 °F 29.9 in NW 6.8 mph 9.9 mph 71% 0.01 in 628.00 W/m2 unknown
10:24 80.6 °F 69.8 °F 29.9 in WNW 5.6 mph 8.7 mph 68% 0 in 624.00 W/m2 unknown
10:29 80.6 °F 69.8 °F 29.9 in West 6.2 mph 6.8 mph 69% 0 in 636.00 W/m2 unknown
10:34 80.6 °F 69.8 °F 29.9 in West 8.1 mph 10.6 mph 69% 0 in 649.00 W/m2 unknown
10:39 82.4 °F 69.8 °F 29.9 in West 6.2 mph 9.9 mph 67% 0 in 657.00 W/m2 unknown
10:44 82.4 °F 69.8 °F 29.9 in West 6.2 mph 9.3 mph 68% 0 in 668.00 W/m2 unknown
10:49 82.4 °F 69.8 °F 29.9 in West 7.5 mph 9.3 mph 67% 0 in 680.00 W/m2 unknown
10:54 82.4 °F 69.8 °F 29.9 in WNW 6.2 mph 10.6 mph 65% 0 in 689.00 W/m2 unknown
10:59 82.4 °F 69.8 °F 29.9 in West 6.2 mph 9.9 mph 66% 0 in 701.00 W/m2 unknown
11:04 82.4 °F 69.8 °F 29.9 in WSW 8.1 mph 10.6 mph 66% 0 in 710.00 W/m2 unknown
11:09 82.4 °F 69.8 °F 29.9 in WSW 8.1 mph 9.9 mph 65% 0 in 722.00 W/m2 unknown
11:14 82.4 °F 69.8 °F 29.9 in West 5.6 mph 8.7 mph 66% 0 in 724.00 W/m2 unknown
11:19 82.4 °F 69.8 °F 29.9 in WSW 7.5 mph 9.9 mph 66% 0 in 731.00 W/m2 unknown
11:24 82.4 °F 69.8 °F 29.9 in WSW 8.1 mph 10.6 mph 66% 0 in 747.00 W/m2 unknown
11:29 82.4 °F 71.6 °F 29.9 in West 8.7 mph 9.9 mph 67% 0 in 747.00 W/m2 unknown
11:34 82.4 °F 69.8 °F 29.9 in WSW 8.7 mph 10.6 mph 65% 0 in 759.00 W/m2 unknown
11:39 82.4 °F 69.8 °F 29.9 in WNW 6.2 mph 9.9 mph 64% 0 in 761.00 W/m2 unknown
11:44 82.4 °F 71.6 °F 29.9 in West 3.7 mph 8.1 mph 67% 0 in 768.00 W/m2 unknown
11:49 84.2 °F 71.6 °F 29.9 in WNW 4.3 mph 6.2 mph 66% 0 in 773.00 W/m2 unknown
11:54 84.2 °F 71.6 °F 29.9 in West 5.6 mph 8.1 mph 66% 0 in 782.00 W/m2 unknown
11:59 84.2 °F 71.6 °F 29.9 in West 6.2 mph 9.3 mph 66% 0 in 793.00 W/m2 unknown
12:04 84.2 °F 71.6 °F 29.9 in WSW 5.6 mph 8.7 mph 68% 0 in 800.00 W/m2 unknown
12:09 84.2 °F 71.6 °F 29.9 in West 7.5 mph 9.3 mph 66% 0 in 800.00 W/m2 unknown
12:14 84.2 °F 71.6 °F 29.9 in WSW 6.8 mph 11.8 mph 66% 0 in 807.00 W/m2 unknown
12:19 84.2 °F 71.6 °F 29.9 in West 6.8 mph 11.8 mph 66% 0 in 814.00 W/m2 unknown
12:24 84.2 °F 71.6 °F 29.9 in West 6.2 mph 9.9 mph 66% 0 in 819.00 W/m2 unknown
12:29 84.2 °F 71.6 °F 29.9 in WSW 7.5 mph 9.3 mph 65% 0 in 828.00 W/m2 unknown
12:34 86 °F 71.6 °F 29.9 in West 5 mph 8.7 mph 66% 0 in 831.00 W/m2 unknown
12:39 86 °F 71.6 °F 29.9 in WSW 5.6 mph 6.8 mph 65% 0 in 833.00 W/m2 unknown
12:44 84.2 °F 71.6 °F 29.9 in WSW 6.2 mph 8.7 mph 65% 0 in 838.00 W/m2 unknown
12:49 84.2 °F 71.6 °F 29.9 in West 6.2 mph 9.3 mph 64% 0 in 842.00 W/m2 unknown
12:54 84.2 °F 71.6 °F 29.9 in SW 5 mph 8.7 mph 66% 0 in 840.00 W/m2 unknown
12:59 84.2 °F 71.6 °F 29.9 in WSW 5.6 mph 8.1 mph 66% 0 in 849.00 W/m2 unknown
13:04 86 °F 71.6 °F 29.9 in SW 5 mph 8.1 mph 64% 0 in 849.00 W/m2 unknown
13:09 86 °F 71.6 °F 29.9 in SW 4.3 mph 6.8 mph 63% 0 in 858.00 W/m2 unknown
13:14 86 °F 71.6 °F 29.9 in SW 4.3 mph 6.8 mph 63% 0 in 865.00 W/m2 unknown
13:19 86 °F 71.6 °F 29.9 in WSW 5.6 mph 6.8 mph 61% 0 in 861.00 W/m2 unknown
13:24 87.8 °F 71.6 °F 29.9 in WSW 5.6 mph 6.8 mph 61% 0 in 861.00 W/m2 unknown
13:29 86 °F 69.8 °F 29.9 in WSW 3.7 mph 5.6 mph 59% 0 in 863.00 W/m2 unknown
13:34 86 °F 69.8 °F 29.9 in West 5 mph 6.2 mph 59% 0 in 865.00 W/m2 unknown
13:39 87.8 °F 69.8 °F 29.9 in WNW 5 mph 6.2 mph 58% 0 in 867.00 W/m2 unknown
13:44 86 °F 71.6 °F 29.9 in West 5.6 mph 6.8 mph 60% 0 in 867.00 W/m2 unknown
13:49 87.8 °F 71.6 °F 29.9 in West 5 mph 8.1 mph 62% 0 in 865.00 W/m2 unknown
13:54 87.8 °F 71.6 °F 29.9 in WSW 5.6 mph 8.1 mph 62% 0 in 865.00 W/m2 unknown
13:59 87.8 °F 71.6 °F 29.9 in West 5.6 mph 8.1 mph 59% 0 in 863.00 W/m2 unknown
14:04 87.8 °F 71.6 °F 29.9 in WSW 7.5 mph 9.3 mph 59% 0 in 863.00 W/m2 unknown
14:09 87.8 °F 69.8 °F 29.9 in West 6.2 mph 9.3 mph 56% 0 in 858.00 W/m2 unknown
14:14 87.8 °F 69.8 °F 29.9 in West 7.5 mph 9.9 mph 55% 0 in 854.00 W/m2 unknown
14:19 87.8 °F 69.8 °F 29.9 in West 8.1 mph 10.6 mph 55% 0 in 853.00 W/m2 unknown
14:24 87.8 °F 69.8 °F 29.9 in WSW 7.5 mph 10.6 mph 55% 0 in 849.00 W/m2 unknown
14:29 87.8 °F 69.8 °F 29.9 in West 6.8 mph 11.2 mph 54% 0 in 847.00 W/m2 unknown
14:34 87.8 °F 69.8 °F 29.9 in WSW 8.1 mph 11.8 mph 54% 0 in 842.00 W/m2 unknown
14:39 89.6 °F 69.8 °F 29.9 in WSW 6.2 mph 11.8 mph 55% 0 in 838.00 W/m2 unknown
14:44 89.6 °F 69.8 °F 29.9 in West 6.8 mph 8.1 mph 55% 0 in 837.00 W/m2 unknown
14:49 89.6 °F 69.8 °F 29.9 in West 6.2 mph 8.1 mph 53% 0 in 831.00 W/m2 unknown
14:54 89.6 °F 69.8 °F 29.9 in WSW 5 mph 6.8 mph 54% 0 in 828.00 W/m2 unknown
14:59 89.6 °F 71.6 °F 29.9 in WSW 5.6 mph 8.1 mph 55% 0 in 821.00 W/m2 unknown
15:04 89.6 °F 71.6 °F 29.9 in WSW 6.2 mph 9.9 mph 55% 0 in 817.00 W/m2 unknown
15:09 89.6 °F 69.8 °F 29.9 in West 6.8 mph 10.6 mph 52% 0 in 814.00 W/m2 unknown
15:14 89.6 °F 71.6 °F 29.9 in West 6.2 mph 9.9 mph 54% 0 in 803.00 W/m2 unknown
15:19 91.4 °F 71.6 °F 29.9 in WSW 8.1 mph 10.6 mph 54% 0 in 798.00 W/m2 unknown
15:24 89.6 °F 71.6 °F 29.9 in WSW 7.5 mph 10.6 mph 54% 0 in 796.00 W/m2 unknown
15:29 89.6 °F 69.8 °F 29.9 in West 6.8 mph 10.6 mph 53% 0 in 789.00 W/m2 unknown
15:34 89.6 °F 69.8 °F 29.9 in West 5.6 mph 9.9 mph 51% 0 in 779.00 W/m2 unknown
15:39 91.4 °F 69.8 °F 29.9 in West 8.1 mph 10.6 mph 51% 0 in 775.00 W/m2 unknown
15:44 91.4 °F 68 °F 29.9 in West 5 mph 9.9 mph 49% 0 in 768.00 W/m2 unknown
15:49 91.4 °F 68 °F 29.9 in West 5 mph 6.8 mph 49% 0 in 758.00 W/m2 unknown
15:54 91.4 °F 69.8 °F 29.9 in WSW 5.6 mph 6.8 mph 50% 0 in 751.00 W/m2 unknown
15:59 91.4 °F 69.8 °F 29.9 in WSW 6.2 mph 8.1 mph 50% 0 in 744.00 W/m2 unknown
16:04 89.6 °F 69.8 °F 29.9 in West 6.2 mph 8.1 mph 51% 0 in 735.00 W/m2 unknown
16:09 91.4 °F 69.8 °F 29.9 in WSW 6.8 mph 8.1 mph 51% 0 in 722.00 W/m2 unknown
16:14 91.4 °F 69.8 °F 29.9 in WSW 6.8 mph 8.1 mph 51% 0 in 715.00 W/m2 unknown
16:19 91.4 °F 69.8 °F 29.9 in SW 3.7 mph 6.8 mph 50% 0 in 705.00 W/m2 unknown
16:24 91.4 °F 71.6 °F 29.9 in WSW 3.1 mph 5 mph 52% 0 in 689.00 W/m2 unknown
16:29 91.4 °F 69.8 °F 29.9 in SW 5 mph 6.2 mph 51% 0 in 679.00 W/m2 unknown
16:34 91.4 °F 69.8 °F 29.9 in West 4.3 mph 6.2 mph 51% 0 in 677.00 W/m2 unknown
16:39 91.4 °F 69.8 °F 29.9 in WSW 4.3 mph 6.2 mph 52% 0 in 664.00 W/m2 unknown
16:44 91.4 °F 69.8 °F 29.9 in West 5 mph 6.8 mph 51% 0 in 645.00 W/m2 unknown
16:49 91.4 °F 69.8 °F 29.9 in WSW 5 mph 6.8 mph 50% 0 in 640.00 W/m2 unknown
16:54 91.4 °F 69.8 °F 29.9 in WNW 5 mph 6.8 mph 51% 0 in 631.00 W/m2 unknown
16:59 91.4 °F 69.8 °F 29.9 in NNW 4.3 mph 6.8 mph 51% 0 in 613.00 W/m2 unknown
17:04 91.4 °F 69.8 °F 29.9 in NNE 3.1 mph 6.8 mph 49% 0 in 605.00 W/m2 unknown
17:09 91.4 °F 71.6 °F 29.9 in WNW 6.2 mph 9.3 mph 52% 0 in 596.00 W/m2 unknown
17:14 91.4 °F 69.8 °F 29.9 in WNW 6.2 mph 9.3 mph 49% 0 in 584.00 W/m2 unknown
17:19 91.4 °F 69.8 °F 29.9 in West 5 mph 8.7 mph 49% 0 in 573.00 W/m2 unknown
17:24 91.4 °F 69.8 °F 29.9 in WNW 6.8 mph 8.1 mph 49% 0 in 550.00 W/m2 unknown
17:29 91.4 °F 68 °F 29.9 in West 6.8 mph 8.1 mph 48% 0 in 545.00 W/m2 unknown
17:34 91.4 °F 69.8 °F 29.9 in WSW 3.7 mph 8.1 mph 49% 0 in 531.00 W/m2 unknown
17:39 91.4 °F 69.8 °F 29.9 in WNW 6.2 mph 9.3 mph 49% 0 in 520.00 W/m2 unknown
17:44 91.4 °F 69.8 °F 29.9 in WNW 5 mph 8.7 mph 49% 0 in 510.00 W/m2 unknown
17:49 91.4 °F 68 °F 29.9 in WSW 4.3 mph 6.2 mph 48% 0 in 494.00 W/m2 unknown
17:54 91.4 °F 68 °F 29.9 in WNW 3.7 mph 6.2 mph 48% 0 in 482.00 W/m2 unknown
17:59 91.4 °F 69.8 °F 29.9 in West 5 mph 6.2 mph 50% 0 in 468.00 W/m2 unknown
18:04 91.4 °F 69.8 °F 29.9 in West 5 mph 6.2 mph 50% 0 in 454.00 W/m2 unknown
18:09 91.4 °F 69.8 °F 29.9 in WNW 5.6 mph 6.2 mph 49% 0 in 443.00 W/m2 unknown
18:14 91.4 °F 69.8 °F 29.9 in West 5 mph 6.2 mph 49% 0 in 429.00 W/m2 unknown
18:19 91.4 °F 69.8 °F 29.9 in WSW 3.1 mph 6.2 mph 49% 0 in 413.00 W/m2 unknown
18:24 91.4 °F 69.8 °F 29.9 in West 5 mph 6.2 mph 50% 0 in 401.00 W/m2 unknown
18:29 91.4 °F 69.8 °F 29.9 in NW 5 mph 6.2 mph 49% 0 in 385.00 W/m2 unknown
18:34 91.4 °F 69.8 °F 29.9 in West 2.5 mph 6.2 mph 50% 0 in 371.00 W/m2 unknown
18:39 91.4 °F 69.8 °F 29.9 in WSW 2.5 mph 3.7 mph 52% 0 in 355.00 W/m2 unknown
18:44 89.6 °F 69.8 °F 29.9 in SW 2.5 mph 3.7 mph 52% 0 in 341.00 W/m2 unknown
18:49 89.6 °F 69.8 °F 29.9 in SW 2.5 mph 3.7 mph 51% 0 in 330.00 W/m2 unknown
18:54 89.6 °F 69.8 °F 29.9 in SW 2.5 mph 3.7 mph 51% 0 in 315.00 W/m2 unknown
18:59 89.6 °F 69.8 °F 29.9 in WSW 3.1 mph 3.7 mph 50% 0 in 302.00 W/m2 unknown
19:04 89.6 °F 68 °F 29.9 in SW 2.5 mph 3.7 mph 49% 0 in 285.00 W/m2 unknown
19:09 89.6 °F 68 °F 29.9 in SW 1.9 mph 3.7 mph 49% 0 in 269.00 W/m2 unknown
19:14 89.6 °F 68 °F 29.9 in WSW 2.5 mph 3.7 mph 48% 0 in 253.00 W/m2 unknown
19:19 89.6 °F 69.8 °F 29.9 in SSE 1.2 mph 3.1 mph 52% 0 in 237.00 W/m2 unknown
19:24 89.6 °F 71.6 °F 29.9 in ESE 3.1 mph 3.7 mph 55% 0 in 225.00 W/m2 unknown
19:29 89.6 °F 71.6 °F 29.9 in East 3.1 mph 5 mph 56% 0 in 211.00 W/m2 unknown
19:34 89.6 °F 71.6 °F 29.9 in ESE 3.1 mph 5 mph 58% 0 in 195.00 W/m2 unknown
19:39 87.8 °F 71.6 °F 29.9 in ESE 2.5 mph 5 mph 58% 0 in 178.00 W/m2 unknown
19:44 87.8 °F 71.6 °F 29.9 in ESE 2.5 mph 3.7 mph 57% 0 in 160.00 W/m2 unknown
19:49 87.8 °F 71.6 °F 29.9 in ESE 2.5 mph 3.7 mph 58% 0 in 146.00 W/m2 unknown
19:54 87.8 °F 71.6 °F 29.9 in ESE 1.2 mph 3.1 mph 58% 0 in 130.00 W/m2 unknown
19:59 87.8 °F 69.8 °F 29.9 in ESE 1.2 mph 2.5 mph 56% 0 in 118.00 W/m2 unknown
20:04 87.8 °F 69.8 °F 29.9 in ESE 1.9 mph 2.5 mph 57% 0 in 102.00 W/m2 unknown
20:09 87.8 °F 71.6 °F 29.9 in ESE 3.1 mph 3.7 mph 61% 0 in 90.00 W/m2 unknown
20:14 87.8 °F 71.6 °F 29.9 in ESE 3.1 mph 3.7 mph 62% 0 in 63.00 W/m2 unknown
20:19 86 °F 71.6 °F 29.9 in ESE 2.5 mph 3.7 mph 62% 0 in 23.00 W/m2 unknown
20:24 86 °F 71.6 °F 29.9 in East 3.1 mph 5 mph 63% 0 in 21.00 W/m2 unknown
20:29 86 °F 71.6 °F 29.9 in ESE 3.1 mph 5 mph 65% 0 in 18.00 W/m2 unknown
20:34 86 °F 73.4 °F 29.9 in ESE 1.9 mph 3.7 mph 67% 0 in 16.00 W/m2 unknown
20:39 84.2 °F 73.4 °F 29.9 in ESE 1.9 mph 3.1 mph 67% 0 in 14.00 W/m2 unknown
20:44 84.2 °F 71.6 °F 29.9 in ESE 1.9 mph 3.7 mph 67% 0 in 12.00 W/m2 unknown
20:49 84.2 °F 71.6 °F 29.9 in SE 1.9 mph 3.1 mph 66% 0 in 11.00 W/m2 unknown
20:54 84.2 °F 71.6 °F 29.9 in ESE 1.9 mph 2.5 mph 67% 0 in 9.00 W/m2 unknown
20:59 84.2 °F 71.6 °F 29.9 in ESE 1.9 mph 3.7 mph 67% 0 in 7.00 W/m2 unknown
21:04 82.4 °F 71.6 °F 29.9 in ESE 1.9 mph 3.1 mph 69% 0 in 5.00 W/m2 unknown
21:09 82.4 °F 71.6 °F 29.9 in ESE 1.2 mph 2.5 mph 70% 0 in 0.00 W/m2 unknown
21:14 82.4 °F 71.6 °F 29.9 in ESE 1.2 mph 2.5 mph 70% 0 in 0.00 W/m2 unknown
21:19 82.4 °F 71.6 °F 29.9 in ESE 1.2 mph 1.9 mph 72% 0 in 0.00 W/m2 unknown
21:24 82.4 °F 71.6 °F 29.9 in Calm   1.2 mph 72% 0 in 0.00 W/m2 unknown
21:29 82.4 °F 71.6 °F 29.9 in Calm     72% 0 in 0.00 W/m2 unknown
21:34 80.6 °F 69.8 °F 29.9 in Calm     70% 0 in 0.00 W/m2 unknown
21:39 80.6 °F 71.6 °F 29.9 in Calm   1.2 mph 72% 0 in 0.00 W/m2 unknown
21:44 80.6 °F 71.6 °F 29.9 in SE 1.2 mph 1.9 mph 72% 0 in 0.00 W/m2 unknown
21:49 80.6 °F 69.8 °F 29.9 in SSE 1.2 mph 2.5 mph 71% 0 in 0.00 W/m2 unknown
21:54 80.6 °F 71.6 °F 29.9 in Calm   1.9 mph 73% 0 in 0.00 W/m2 unknown
21:59 80.6 °F 71.6 °F 29.9 in East 1.9 mph 2.5 mph 74% 0 in 0.00 W/m2 unknown
22:04 78.8 °F 69.8 °F 29.9 in East 1.9 mph 2.5 mph 73% 0 in 0.00 W/m2 unknown
22:09 78.8 °F 69.8 °F 29.9 in Calm   1.9 mph 74% 0 in 0.00 W/m2 unknown
22:14 78.8 °F 69.8 °F 29.9 in East 1.9 mph 2.5 mph 75% 0 in 0.00 W/m2 unknown
22:19 78.8 °F 69.8 °F 29.9 in ENE 3.1 mph 3.7 mph 76% 0 in 0.00 W/m2 unknown
22:24 78.8 °F 69.8 °F 29.9 in ENE 2.5 mph 3.7 mph 76% 0 in 0.00 W/m2 unknown
22:29 78.8 °F 69.8 °F 29.9 in NE 5 mph 8.1 mph 77% 0 in 0.00 W/m2 unknown
22:34 78.8 °F 69.8 °F 29.9 in NE 8.1 mph 9.3 mph 77% 0 in 0.00 W/m2 unknown
22:39 78.8 °F 69.8 °F 29.9 in ENE 6.2 mph 9.3 mph 73% 0 in 0.00 W/m2 unknown
22:44 78.8 °F 69.8 °F 29.9 in ENE 9.3 mph 11.8 mph 72% 0 in 0.00 W/m2 unknown
22:49 78.8 °F 68 °F 29.9 in ENE 8.7 mph 11.8 mph 70% 0 in 0.00 W/m2 unknown
22:54 78.8 °F 68 °F 29.9 in ENE 8.7 mph 13 mph 69% 0 in 0.00 W/m2 unknown
22:59 78.8 °F 68 °F 29.9 in ENE 8.7 mph 13 mph 70% 0 in 0.00 W/m2 unknown
23:04 78.8 °F 68 °F 29.9 in ENE 9.3 mph 13 mph 70% 0 in 0.00 W/m2 unknown
23:09 78.8 °F 68 °F 29.9 in East 9.3 mph 13 mph 70% 0 in 0.00 W/m2 unknown
23:14 77 °F 68 °F 29.9 in ENE 6.8 mph 11.8 mph 70% 0 in 0.00 W/m2 unknown
23:19 77 °F 68 °F 29.9 in ENE 6.8 mph 11.2 mph 70% 0 in 0.00 W/m2 unknown
23:24 77 °F 66.2 °F 29.9 in East 9.3 mph 14.3 mph 70% 0 in 0.00 W/m2 unknown
23:29 77 °F 66.2 °F 29.9 in East 8.7 mph 13 mph 69% 0 in 0.00 W/m2 unknown
23:34 77 °F 66.2 °F 29.9 in East 6.8 mph 13 mph 69% 0 in 0.00 W/m2 unknown
23:39 77 °F 66.2 °F 29.9 in East 6.8 mph 9.3 mph 70% 0 in 0.00 W/m2 unknown
23:44 77 °F 66.2 °F 29.9 in East 6.2 mph 9.3 mph 70% 0 in 0.00 W/m2 unknown
23:49 77 °F 66.2 °F 29.9 in East 5.6 mph 8.1 mph 70% 0 in 0.00 W/m2 unknown
23:54 77 °F 66.2 °F 29.9 in East 6.2 mph 9.3 mph 70% 0 in 0.00 W/m2 unknown
23:59 77 °F 66.2 °F 29.9 in ENE 8.1 mph 11.8 mph 70% 0 in 0.00 W/m2 unknown
Stazione Meteorologica MeteoMincio Rivalta s/M (MN)
Con i complimenti di Weather Underground - 4 mb



METEO PILLOLE
I venti più forti in un ciclone tropicale con persistenza di oltre 24 ore
Lungo le coste dell'Alabama e del Mississippi
Durante l'uragano Camilla, dal 17 al 18 agosto del 1969, la velocità media dei venti fu di 322 km/h con raffiche fino a 338 km/h.
Share

Non seguire questo link o sarai bannato dal sito!